User: anonymous   Login
Location: ????????
(54.9045°N, 39.1041°E)
Time: 07:48:34
(UTC+00:00)
Language:

COSMOS 2428 - Orbit

View from above orbital plane
View from above orbital plane
View from above satellite
View from above satellite

Ground track
Ground track

The orbit data is extracted from the following two-line orbital elements,

1 31792U 07029A   24166.93333027 -.00000196  00000-0 -80031-4 0  9993
2 31792  70.9419  91.5063 0008202  41.5410 318.6333 14.12715227874722
Epoch (UTC): 14 June 2024 22:23:59
Eccentricity: 0.0008202
inclination: 70.9419°
perigee height: 844 km
apogee height: 856 km
right ascension of ascending node: 91.5063°
argument of perigee: 41.5410°
revolutions per day: 14.12715227
mean anomaly at epoch: 318.6333°
orbit number at epoch: 87472

The dashed part of the orbit path shows where the satellite is in the earth's shadow,  

DLR